QZS-1 (QZSS/PRN 183)

Last updated on Jan. 25, 2020, 4:44 a.m. UTC

1 37158U 10045A   20024.21777385 -.00000216  00000-0  00000+0 0  9991
2 37158  41.5051 145.6546 0757776 270.5102 282.7480  1.00256618 34297
UTC
Height (km)
Latitude
Longitude
Inclination
Orbital Period
UTC large
Height (km)
Speed (km/s)
/
Latitude / Longitude
Inclination (degrees)
Orbital Period (minutes)
Azimuth
Elevation
Range (km)
Doppler Factor
iOS Compass Heading
iOS Angle

Next 30 passes for location: Hong Kong

Rise time Rise Azimuth (degrees) Set time Set Azimuth (degrees) Duration Max altitude (degrees)

No matching passes for this satellites